{"data":{"norad_id":68187,"epoch":"2026-05-24T18:05:29.196096Z","epoch_age_seconds":99469,"freshness":"FRESH","line1":"1 68187U 26050W   26144.75381014  .00032698  00000+0  97472-3 0  9998","line2":"2 68187  53.1598 273.1005 0000973  87.0854 273.0260 15.34398319 12337","mean_motion":15.34398319,"eccentricity":9.73e-5,"inclination_deg":53.1598,"raan_deg":273.1005,"arg_perigee_deg":87.0854,"mean_anomaly_deg":273.026,"bstar":0.00097472,"rev_number":1233,"period_min":93.84786089563,"perigee_km":462.04262225641,"apogee_km":463.37385073943,"semimajor_km":6840.8452364979,"source":"CELESTRAK","updated_at":"2026-05-25T13:38:21.856860Z"}}